OPS 4682 DEB, 38409

Orbit data source: Space-Track

OPS 4682 DEB, 38409 is space debris in LEO originally from a launch on Sat, 03 Apr 1965 UTC launched from the Air Force Western Test Range (AFWTR). Debris objects in space refer to the collection of defunct objects orbiting the Earth. Examples of debris include non-operational satellites, rocket bodies, and fragments generated from explosions, collisions, or faulty payload assembly.

Loading next visibility...
Identifier
38409, 1965-027DN
Orbit
LEO
Country
Flag of USUS
Related business
Manufacturer
Unknown
Mission
Spacecraft
Bus & Motor
Unknown
Mass
Unknown
Launch date (UTC)
1965-04-03 (61 years ago)
Launch vehicle
Unknown
Launch site
Air Force Western Test Range (AFWTR)
Object type
Payload
Rocket body
Debris
Shape & HBR
Unknown shape, 0.1 m
Radar Cross Section
Small (<0.1 m²)

Expand to show TLE details & history
Last TLE update: 2 days ago

TLE from 2 days ago
0 OPS 4682 DEB
1 38409U 65027DN  26066.83440273 -.00000223  00000-0 -77332-3 0  9999
2 38409  90.2892  24.3710 0033948 259.4597 100.2699 12.99109056175058
Epoch: 2026-03-07T20:01Z
TLE epoch observation values (Epoch: 2026-03-07T20:01:32.395Z)
Latitude
-0.00008°
Longitude
-81.56434°
Altitude
1,273.174 km
Speed
7.217 km/s
True Right ascension
01h 37m 29s
True Declination
0° 00' 00"
Sunlit
Object was in daylight at epoch
Visualization orbit readout
Latitude
Unknown
Longitude
Unknown
Altitude
Unknown
Speed
Unknown
Apparent Right ascension
Unknown
Apparent Declination
Unknown
Sunlit
N/A
Visualization observer readout
Local Sidereal Time
19:29:02
Azimuth
Unknown
Elevation
Unknown
Doppler factor
Unknown
Orbital elements
Apogee altitude
1,288.647 km
Perigee altitude
1,236.769 km
Semi-major axis
7,640.845 km
Eccentricity
0.00339
Inclination
90.2892°
RAAN
24.371°
Arg. of periapsis
259.4597°
True anomaly
100.65239°
Mean anomaly
100.2699°
Eccentric anomaly
100.46117°
Mean motion
3.24961 °/min
Orbital period
110.78 mins
BSTAR
-0.00077332
Loading maneuver chart data...
Computing Atmospheric mass density...
Loading historical data...
Loading historical data...
Loading historical data...
Loading historical data...
Loading historical data...
Loading historical data...
Loading historical data...

Documentation

Showing up to 5 results
|